Weather Roundup
Issued by NWS Corpus Christi, TX

Home | Current Version | Previous Version | Text Only | Print | Product List | Glossary On
Versions: 1 2 3 4 5 6 7 8 9 10 11 12 13 14 15 16 17 18 19 20 21 22 23 24 25 26 27 28 29 30 31 32 33 34 35 36 37 38 39 40 41 42 43 44 45 46 47 48 49 50
521
ASUS44 KCRP 220410
HRRCRP

SOUTH TEXAS REGIONAL WEATHER ROUNDUP
NATIONAL WEATHER SERVICE CORPUS CHRISTI TX
1000 PM CST SAT JAN 21 2017


TXZ229>244-220500-
...CORPUS CHRISTI AREA OBSERVATIONS...

CITY           SKY/WX    TMP DP  RH WIND       PRES   REMARKS
CORPUS CHRISTI PTCLDY    74  46  36 NW21      29.54R
NAS CORPUS CHR PTCLDY    73  54  51 W20       29.52R
ROCKPORT       CLEAR     70  60  70 VRB3G18   29.53R
KINGSVILLE NAS CLEAR     76  41  28 NW17      29.56R
ALICE          CLEAR     74  38  27 N26G36    29.58R
ORANGE GROVE   CLEAR     73  41  31 N24G36    29.61R
FALFURRIAS     CLEAR     77  36  22 NW14G21   29.55R
$$

...VICTORIA AREA OBSERVATIONS...

CITY           SKY/WX    TMP DP  RH WIND       PRES   REMARKS
VICTORIA       CLOUDY    70  57  63 N17G28    29.58R
BEEVILLE       FAIR      72  44  36 N22G28    29.59R
PLEASANTON     CLEAR     65  39  37 NW10      29.63R
SAN ANTONIO    CLOUDY    65  38  36 NW20G30   29.60R
$$

...LAREDO AREA OBSERVATIONS...

CITY           SKY/WX    TMP DP  RH WIND       PRES   REMARKS
LAREDO         CLEAR     68  40  35 N22G32    29.63R
COTULLA        CLEAR     67  39  35 N8        29.65R
DEL RIO        MOCLDY    59  43  55 W22       29.72R
MCALLEN        MOCLDY    71  54  54 VRB3      29.46R
HEBBRONVILLE   CLEAR     71  36  28 N13       29.63R
$$

...OTHER TEXAS OBSERVATIONS...

CITY           SKY/WX    TMP DP  RH WIND       PRES   REMARKS
BROWNSVILLE    PTCLDY    71  56  58 S14       29.46R
HOUSTON        CLOUDY    66  56  70 W6        29.52R
COL. STATION   LGT RAIN  64  47  53 NW20G37   29.60R
AUSTIN         CLOUDY    66  40  38 W6        29.57S
WACO           CLOUDY    55  48  77 SW9       29.53F
FORT WORTH     CLOUDY    60  43  53 SW14G23   29.42S
WICHITA FALLS  PTCLDY    49  38  65 SW8       29.38R
LUBBOCK        PTCLDY    46  25  43 W29G37    29.43S
EL PASO        PTCLDY    44  22  41 W31G61    29.88R
$$

...MARINE OBSERVATIONS...

STATION/POSITION TIME  SKY/WX   TEMP    WIND        PRES    VSBY  WAVE   SWELL
                                AIR SEA DIR/SP/G                  HT/PER HT/PER
                 (UTC)          (F)     (DEG/KT/KT) (MB)    (MI)  (FT/S) (FT/S)
PORT ARANSAS     0300            68 65  190/ 16/ 17  997.4R
BUOY 90 E PORT A 0250            74 73  150/ 10/ 12  998.1          4/ 7   3/ 7
BUOY 45 SE BAFFI 0250            73     170/ 10/ 12  996.8          3/ 6   3/ 6
BUOY 200 E PT IS 0250            75 74  200/ 17/ 21 1000.8          6/ 7
BUOY 15 E GALVES 0250            68 67   CALM  /  2  997.7          3/ 6   3/ 6
$$




USA.gov is the U.S. government's official web portal to all federal, state and local government web resources and services.